Location: Bucaritos
(10.0779°N, 67.0369°W)
Time: 05:48:45
(UTC+00:00)

Cosmos 1048 Rocket - Pass Details

Date: 27 June 2022
Orbit: 742 x 791 km, 74.0° (Epoch: 18 August)

Event Time Altitude Azimuth Distance (km) Brightness Sun altitude
Rises 23:20:28 0° 351° (N) 3,187 7.7 -7.1°
Reaches altitude 10° 23:22:49 10° 354° (N) 2,269 6.9 -7.6°
Maximum altitude 23:27:56 69° 77° (ENE) 812 4.0 -8.7°
Drops below altitude 10° 23:33:07 10° 160° (SSE) 2,302 6.1 -9.9°
Enters shadow 23:35:03 - 162° (SSE) 3,048 6.7 -10.3°
